Tracking 19484 objects as of 20-Jan-2019
HD Live streaming from Space Station
objects crossing your sky now

NOAA 13

Track NOAA 13 now!
10-day predictions
NOAA 13 is classified as:


NORAD ID: 22739
Int'l Code: 1993-050A
Perigee: 850.9 km
Apogee: 863.5 km
Inclination: 98.5 °
Period: 101.9 minutes
Semi major axis: 7228 km
RCS: 5.23 m2 (large)
Launch date: August 9, 1993
Source: United States (US)
Launch site: AIR FORCE WESTERN TEST RANGE (AFWTR)
aabbcc
Your satellite tracking list
Your tracking list is empty




NASA's NSSDC Master Catalog

Two Line Element Set (TLE):
1 22739U 93050A   19019.94610144 +.00000014 +00000-0 +29846-4 0  9997
2 22739 098.4873 050.6439 0008678 314.3600 045.6862 14.12721680311331
Source of the keplerian elements: AFSPC